Zurück zum Katalog

STARLINK-30336

AktivKommunikationVLEO
NORAD 57703·PAYLOAD·🇺🇸 United States

Gestartet Aug 27, 2023 von Cape Canaveral Space Force Station

Loading…

Nächste Überflüge (nächste 24 Stunden)

TLE

AktuellSource: CelesTrak SupGP

Epoche: Sep 15, 2026, 02:57 UTC

1 57703C 23129F   26258.12340278  .00053589  00000+0  19406-2 0  2588
2 57703  42.9996 128.0843 0001486 272.8607 102.2213 15.27558099    13

Verfolge STARLINK-30336 in Echtzeit mit AllMySat

Download on the App Store